Location: Columbia
(38.9520°N, 92.3340°W)
Time: 05:56:48
(UTC-05:00)

SJ-11-01 - Visible Passes

Search period start: 25 April 2015 00:00
Search period end: 05 May 2015 00:00
Orbit: 686 x 702 km, 98.2° (Epoch: 25 April)

Date Brightness Start Highest point End Pass type
(mag) Time Alt. Az. Time Alt. Az. Time Alt. Az.
25 Apr 4.3 21:12:47 11° SSE 21:17:17 89° WSW 21:22:04 10° NNW visible
26 Apr 5.8 21:53:30 11° SSW 21:57:41 33° W 22:01:58 10° NNW visible
27 Apr 4.4 20:55:40 10° SSE 21:00:20 61° ENE 21:05:01 10° N visible
27 Apr 7.0 22:36:08 10° WSW 22:38:24 13° W 22:40:23 10° WNW visible
28 Apr 5.1 21:36:10 11° S 21:40:37 51° W 21:45:14 10° NNW visible
29 Apr 4.9 20:38:59 10° SE 20:43:23 40° ENE 20:47:49 10° N visible
29 Apr 6.6 22:17:41 10° SW 22:21:10 19° W 22:24:31 10° NW visible
30 Apr 4.4 21:18:51 10° S 21:23:34 78° W 21:28:19 10° NNW visible
01 May 6.0 21:59:52 10° SSW 22:04:00 29° W 22:08:05 10° NW visible
02 May 4.3 21:01:51 10° SSE 21:06:34 70° ENE 21:11:18 10° N visible
02 May 7.1 22:43:24 10° WSW 22:44:45 11° W 22:45:46 10° WNW visible
03 May 5.3 21:42:21 10° S 21:46:52 43° W 21:51:23 10° NNW visible
04 May 4.7 20:45:05 10° SE 20:49:35 46° ENE 20:54:08 10° N visible
04 May 6.8 22:24:21 10° SW 22:27:29 17° W 22:30:25 10° NW visible
